| time (UTC) | temp C | wind direction | speed KPH | gust KPH | rain 1hr cm | rain 24hr cm | rain mn cm | humidity % | barometer mb |
| 20260507070039 | 5 | 317 | 3.2 | 12.9 | 0.00 | 0.71 | 0.00 | 84 | 1011.3 |
| 20260507064524 | 5 | 23 | 4.8 | 16.1 | 0.00 | 0.71 | 0.00 | 83 | 1011.4 |
| 20260507063021 | 5 | 17 | 4.8 | 17.7 | 0.00 | 0.71 | 0.00 | 82 | 1011.3 |
| 20260507061522 | 5 | 327 | 9.7 | 20.9 | 0.00 | 0.71 | 0.00 | 82 | 1011.3 |
| 20260507060020 | 5 | 26 | 9.7 | 22.5 | 0.00 | 0.71 | 0.00 | 88 | 1011.2 |
| 20260507054515 | 5 | 360 | 4.8 | 16.1 | 0.00 | 0.71 | 0.00 | 88 | 1011.0 |
| 20260507053013 | 5 | 267 | 4.8 | 9.7 | 0.00 | 0.71 | 0.00 | 87 | 1010.8 |
| 20260507051514 | 5 | 282 | 3.2 | 11.3 | 0.00 | 0.71 | 0.00 | 88 | 1011.0 |
| 20260507050020 | 6 | 267 | 4.8 | 14.5 | 0.00 | 0.71 | 0.00 | 87 | 1011.2 |
| 20260507044506 | 6 | 288 | 1.6 | 11.3 | 0.00 | 0.71 | 0.00 | 87 | 1011.1 |
| 20260507043002 | 6 | 264 | 4.8 | 14.5 | 0.00 | 0.71 | 0.00 | 88 | 1011.0 |
| 20260507041558 | 6 | 271 | 4.8 | 11.3 | 0.00 | 0.71 | 0.00 | 92 | 1010.9 |
| 20260507040101 | 6 | 238 | 3.2 | 9.7 | 0.00 | 0.71 | 0.00 | 93 | 1010.7 |
| 20260507034601 | 6 | 229 | 1.6 | 8.0 | 0.00 | 0.71 | 0.71 | 91 | 1010.4 |
| 20260507033107 | 6 | 255 | 4.8 | 16.1 | 0.00 | 0.71 | 0.71 | 91 | 1010.5 |
| 20260507031601 | 6 | 303 | 1.6 | 14.5 | 0.00 | 0.71 | 0.71 | 93 | 1010.2 |
| 20260507030107 | 6 | 360 | 6.4 | 16.1 | 0.00 | 0.71 | 0.71 | 95 | 1010.5 |
| 20260507024607 | 6 | 255 | 0.0 | 4.8 | 0.00 | 0.71 | 0.71 | 95 | 1010.4 |
| 20260507023051 | 6 | 227 | 1.6 | 6.4 | 0.00 | 0.71 | 0.71 | 95 | 1010.8 |
| 20260507021555 | 6 | 235 | 0.0 | 0.0 | 0.00 | 0.71 | 0.71 | 95 | 1010.2 |
| 20260507020058 | 6 | 217 | 0.0 | 4.8 | 0.00 | 0.71 | 0.71 | 95 | 1010.4 |
| 20260507014556 | 6 | 267 | 1.6 | 6.4 | 0.00 | 0.71 | 0.71 | 95 | 1010.7 |
| 20260507013053 | 6 | 275 | 0.0 | 4.8 | 0.00 | 0.71 | 0.71 | 94 | 1010.4 |
| 20260507011549 | 6 | 285 | 0.0 | 0.0 | 0.00 | 0.71 | 0.71 | 94 | 1010.5 |
| 20260507010046 | 6 | 267 | 0.0 | 6.4 | 0.00 | 0.71 | 0.71 | 93 | 1010.4 |
| 20260507004543 | 7 | 312 | 0.0 | 6.4 | 0.00 | 0.71 | 0.71 | 93 | 1010.2 |
| 20260507003041 | 7 | 316 | 1.6 | 4.8 | 0.00 | 0.71 | 0.71 | 94 | 1010.0 |
| 20260507001540 | 6 | 317 | 0.0 | 6.4 | 0.00 | 0.71 | 0.71 | 93 | 1009.7 |
| 20260507000039 | 7 | 335 | 1.6 | 6.4 | 0.00 | 0.71 | 0.71 | 93 | 1009.7 |
| 20260506234550 | 7 | 328 | 3.2 | 8.0 | 0.00 | 0.71 | 0.71 | 93 | 1009.5 |
| 20260506233046 | 7 | 300 | 3.2 | 6.4 | 0.00 | 0.71 | 0.71 | 93 | 1009.5 |
| 20260506231536 | 7 | 335 | 0.0 | 4.8 | 0.00 | 0.71 | 0.71 | 93 | 1009.2 |
| 20260506230034 | 7 | 329 | 3.2 | 6.4 | 0.00 | 0.71 | 0.71 | 94 | 1009.3 |
| 20260506224534 | 6 | 255 | 0.0 | 4.8 | 0.00 | 0.71 | 0.71 | 94 | 1009.1 |
| 20260506223032 | 6 | 327 | 6.4 | 9.7 | 0.00 | 0.71 | 0.71 | 94 | 1009.0 |
| 20260506221532 | 6 | 360 | 6.4 | 12.9 | 0.00 | 0.71 | 0.71 | 94 | 1009.0 |
| 20260506220030 | 7 | 13 | 11.3 | 20.9 | 0.00 | 0.71 | 0.71 | 94 | 1008.5 |
| 20260506214528 | 7 | 20 | 9.7 | 20.9 | 0.00 | 0.71 | 0.71 | 94 | 1008.4 |
| 20260506213028 | 7 | 347 | 8.0 | 16.1 | 0.00 | 0.71 | 0.71 | 95 | 1008.4 |
| 20260506211526 | 7 | 298 | 4.8 | 16.1 | 0.00 | 0.71 | 0.71 | 95 | 1008.3 |
| 20260506210028 | 7 | 360 | 1.6 | 14.5 | 0.00 | 0.71 | 0.71 | 95 | 1008.0 |
| 20260506204523 | 7 | 290 | 8.0 | 24.1 | 0.00 | 0.71 | 0.71 | 95 | 1008.0 |
| 20260506203028 | 7 | 325 | 6.4 | 17.7 | 0.00 | 0.71 | 0.71 | 95 | 1007.6 |
| 20260506201520 | 7 | 355 | 8.0 | 17.7 | 0.00 | 0.71 | 0.71 | 95 | 1007.7 |
| 20260506200019 | 7 | 16 | 11.3 | 19.3 | 0.00 | 0.71 | 0.71 | 95 | 1007.3 |
| 20260506194616 | 7 | 30 | 12.9 | 19.3 | 0.03 | 0.81 | 0.71 | 95 | 1007.0 |
| 20260506193015 | 7 | 11 | 9.7 | 22.5 | 0.05 | 0.81 | 0.71 | 95 | 1006.7 |
| 20260506191515 | 7 | 5 | 12.9 | 20.9 | 0.05 | 0.81 | 0.71 | 95 | 1006.8 |
| 20260506190012 | 7 | 20 | 14.5 | 25.7 | 0.05 | 0.81 | 0.71 | 95 | 1006.7 |
| 20260506184510 | 7 | 343 | 8.0 | 24.1 | 0.03 | 0.79 | 0.69 | 95 | 1006.7 |
| 20260506183011 | 7 | 347 | 9.7 | 19.3 | 0.00 | 0.76 | 0.66 | 95 | 1006.4 |
| 20260506181508 | 7 | 327 | 3.2 | 12.9 | 0.00 | 0.76 | 0.66 | 96 | 1006.0 |
| 20260506180012 | 7 | 12 | 3.2 | 14.5 | 0.03 | 0.76 | 0.66 | 95 | 1005.8 |
| 20260506174507 | 7 | 342 | 4.8 | 8.0 | 0.03 | 0.76 | 0.66 | 96 | 1005.8 |
| 20260506173016 | 7 | 300 | 6.4 | 19.3 | 0.05 | 0.76 | 0.66 | 95 | 1005.6 |
| 20260506171506 | 7 | 279 | 6.4 | 16.1 | 0.05 | 0.76 | 0.66 | 95 | 1005.4 |
| 20260506170005 | 7 | 323 | 4.8 | 16.1 | 0.05 | 0.71 | 0.64 | 95 | 1005.5 |
| 20260506164504 | 6 | 279 | 6.4 | 16.1 | 0.05 | 0.71 | 0.64 | 95 | 1005.4 |
| 20260506163004 | 6 | 345 | 3.2 | 16.1 | 0.03 | 0.71 | 0.61 | 95 | 1005.3 |
| 20260506161503 | 7 | 307 | 6.4 | 14.5 | 0.08 | 0.71 | 0.61 | 95 | 1005.2 |
| 20260506160003 | 7 | 355 | 3.2 | 4.8 | 0.08 | 0.69 | 0.58 | 94 | 1004.9 |
| 20260506154502 | 7 | 24 | 3.2 | 9.7 | 0.08 | 0.69 | 0.58 | 95 | 1004.7 |
| 20260506153000 | 7 | 216 | 1.6 | 6.4 | 0.08 | 0.69 | 0.58 | 95 | 1004.6 |
| 20260506151603 | 7 | 360 | 6.4 | 24.1 | 0.03 | 0.64 | 0.53 | 93 | 1004.7 |
| 20260506150056 | 8 | 331 | 14.5 | 24.1 | 0.03 | 0.61 | 0.51 | 90 | 1004.7 |
| 20260506144553 | 10 | 334 | 3.2 | 8.0 | 0.05 | 0.61 | 0.51 | 92 | 1004.3 |
| 20260506143053 | 10 | 317 | 3.2 | 8.0 | 0.05 | 0.61 | 0.51 | 92 | 1004.1 |
| 20260506141552 | 13 | 30 | 0.0 | 6.4 | 0.10 | 0.61 | 0.51 | 94 | 1003.7 |
| 20260506140050 | 13 | 184 | 4.8 | 12.9 | 0.10 | 0.58 | 0.48 | 94 | 1003.9 |
| 20260506134548 | 12 | 207 | 3.2 | 8.0 | 0.13 | 0.56 | 0.46 | 95 | 1003.9 |
| 20260506133046 | 12 | 209 | 4.8 | 16.1 | 0.20 | 0.56 | 0.46 | 94 | 1004.0 |
| 20260506131551 | 12 | 232 | 6.4 | 11.3 | 0.18 | 0.51 | 0.41 | 94 | 1004.1 |
| 20260506130058 | 12 | 238 | 3.2 | 11.3 | 0.20 | 0.48 | 0.38 | 94 | 1004.5 |
| 20260506124550 | 12 | 202 | 3.2 | 17.7 | 0.18 | 0.43 | 0.33 | 94 | 1004.5 |
| 20260506123043 | 12 | 173 | 8.0 | 20.9 | 0.10 | 0.36 | 0.25 | 94 | 1004.7 |
| 20260506121540 | 12 | 182 | 8.0 | 16.1 | 0.08 | 0.33 | 0.23 | 94 | 1004.4 |
| 20260506120040 | 12 | 213 | 6.4 | 20.9 | 0.05 | 0.28 | 0.18 | 94 | 1004.1 |
| 20260506114538 | 12 | 207 | 3.2 | 14.5 | 0.08 | 0.25 | 0.15 | 94 | 1004.0 |
| 20260506113040 | 12 | 215 | 3.2 | 11.3 | 0.10 | 0.25 | 0.15 | 95 | 1004.1 |
| 20260506111531 | 11 | 193 | 1.6 | 4.8 | 0.13 | 0.25 | 0.15 | 94 | 1004.1 |
| 20260506110030 | 11 | 234 | 3.2 | 9.7 | 0.10 | 0.23 | 0.13 | 94 | 1004.5 |
| 20260506104528 | 11 | 256 | 3.2 | 9.7 | 0.05 | 0.18 | 0.08 | 94 | 1004.5 |
| 20260506103027 | 11 | 224 | 3.2 | 11.3 | 0.05 | 0.15 | 0.05 | 93 | 1004.3 |
| 20260506101538 | 11 | 208 | 3.2 | 8.0 | 0.03 | 0.13 | 0.03 | 92 | 1004.3 |
| 20260506100021 | 11 | 192 | 1.6 | 6.4 | 0.03 | 0.13 | 0.03 | 91 | 1004.5 |
| 20260506094524 | 11 | 259 | 1.6 | 4.8 | 0.03 | 0.13 | 0.03 | 91 | 1004.5 |
| 20260506093020 | 11 | 215 | 1.6 | 6.4 | 0.00 | 0.10 | 0.00 | 90 | 1004.4 |
| 20260506091514 | 11 | 213 | 0.0 | 8.0 | 0.00 | 0.10 | 0.00 | 90 | 1004.4 |
| 20260506090007 | 11 | 231 | 4.8 | 9.7 | 0.00 | 0.10 | 0.00 | 91 | 1004.4 |
| 20260506084503 | 10 | 273 | 3.2 | 6.4 | 0.00 | 0.10 | 0.00 | 92 | 1004.5 |
| 20260506083001 | 10 | 191 | 0.0 | 16.1 | 0.00 | 0.10 | 0.00 | 93 | 1004.7 |
| 20260506081602 | 10 | 171 | 0.0 | 9.7 | 0.00 | 0.10 | 0.00 | 93 | 1004.7 |
| 20260506073056 | 9 | 153 | 0.0 | 3.2 | 0.00 | 0.10 | 0.00 | 92 | 1004.9 |
| 20260506071559 | 9 | 34 | 3.2 | 6.4 | 0.00 | 0.10 | 0.00 | 92 | 1004.8 |